<?xml version="1.0" encoding="UTF-8" standalone="no" ?>
<gpx xmlns="http://www.topografix.com/GPX/1/1" xmlns:xsi="http://www.w3.org/2001/XMLSchema-instance" xsi:schemaLocation="http://www.topografix.com/GPX/1/1 http://www.topografix.com/GPX/1/1/gpx.xsd" version="1.1" creator="VisuGPX - https://www.visugpx.com">
  <metadata>
    <name>Etape 4, Le Puy en Velay, Le Monastier sur Gazeille, chemin de St Régis</name>
    <desc><![CDATA[
comment ...]]></desc>
  </metadata>
  <trk>
    <name><![CDATA[Chemin de St Regis]]></name>
    <desc><![CDATA[comment ...]]></desc>
    <extensions>
      <line xmlns="http://www.topografix.com/GPX/gpx_style/0/2">
        <color>0000FF</color>
        <width>4</width>
      </line>
    </extensions>
    <trkseg>
      <trkpt lat="45.04556" lon="3.88389">
        <ele>662</ele>
        <time>2023-02-07T16:08:16Z</time>
      </trkpt>
      <trkpt lat="45.04474" lon="3.88409">
        <ele>661.3</ele>
        <time>2023-02-07T16:08:16Z</time>
      </trkpt>
      <trkpt lat="45.04474" lon="3.88394">
        <ele>659.7</ele>
        <time>2023-02-07T16:08:16Z</time>
      </trkpt>
      <trkpt lat="45.04466" lon="3.88388">
        <ele>657.8</ele>
        <time>2023-02-07T16:08:16Z</time>
      </trkpt>
      <trkpt lat="45.04431" lon="3.88377">
        <ele>650</ele>
        <time>2023-02-07T16:08:16Z</time>
      </trkpt>
      <trkpt lat="45.04428" lon="3.88422">
        <ele>652.1</ele>
        <time>2023-02-07T16:08:16Z</time>
      </trkpt>
      <trkpt lat="45.04411" lon="3.88422">
        <ele>646.8</ele>
        <time>2023-02-07T16:08:16Z</time>
      </trkpt>
      <trkpt lat="45.0441" lon="3.8844">
        <ele>647.5</ele>
        <time>2023-02-07T16:08:16Z</time>
      </trkpt>
      <trkpt lat="45.04398" lon="3.88437">
        <ele>645.1</ele>
        <time>2023-02-07T16:08:16Z</time>
      </trkpt>
      <trkpt lat="45.04403" lon="3.8849">
        <ele>646.9</ele>
        <time>2023-02-07T16:08:16Z</time>
      </trkpt>
      <trkpt lat="45.04297" lon="3.88545">
        <ele>625.7</ele>
        <time>2023-02-07T16:08:16Z</time>
      </trkpt>
      <trkpt lat="45.04257" lon="3.8855">
        <ele>624.1</ele>
        <time>2023-02-07T16:08:16Z</time>
      </trkpt>
      <trkpt lat="45.04258" lon="3.8866">
        <ele>622.5</ele>
        <time>2023-02-07T16:08:16Z</time>
      </trkpt>
      <trkpt lat="45.04261" lon="3.88674">
        <ele>622.3</ele>
        <time>2023-02-07T16:08:16Z</time>
      </trkpt>
      <trkpt lat="45.0422" lon="3.887">
        <ele>621.1</ele>
        <time>2023-02-07T16:08:16Z</time>
      </trkpt>
      <trkpt lat="45.04224" lon="3.88712">
        <ele>621</ele>
        <time>2023-02-07T16:08:16Z</time>
      </trkpt>
      <trkpt lat="45.04208" lon="3.88708">
        <ele>621.5</ele>
        <time>2023-02-07T16:08:16Z</time>
      </trkpt>
      <trkpt lat="45.04154" lon="3.88751">
        <ele>622.4</ele>
        <time>2023-02-07T16:08:16Z</time>
      </trkpt>
      <trkpt lat="45.04135" lon="3.88776">
        <ele>621.8</ele>
        <time>2023-02-07T16:08:16Z</time>
      </trkpt>
      <trkpt lat="45.04124" lon="3.88811">
        <ele>621.2</ele>
        <time>2023-02-07T16:08:16Z</time>
      </trkpt>
      <trkpt lat="45.04124" lon="3.88811">
        <ele>621.2</ele>
        <time>2023-02-07T16:08:16Z</time>
      </trkpt>
      <trkpt lat="45.04111" lon="3.88823">
        <ele>623.3</ele>
        <time>2023-02-07T16:08:16Z</time>
      </trkpt>
      <trkpt lat="45.04114" lon="3.88839">
        <ele>624.1</ele>
        <time>2023-02-07T16:08:16Z</time>
      </trkpt>
      <trkpt lat="45.04106" lon="3.88939">
        <ele>629.5</ele>
        <time>2023-02-07T16:08:16Z</time>
      </trkpt>
      <trkpt lat="45.04132" lon="3.89095">
        <ele>637</ele>
        <time>2023-02-07T16:08:16Z</time>
      </trkpt>
      <trkpt lat="45.04155" lon="3.89169">
        <ele>642.3</ele>
        <time>2023-02-07T16:08:16Z</time>
      </trkpt>
      <trkpt lat="45.04155" lon="3.89169">
        <ele>642.3</ele>
        <time>2023-02-07T16:08:16Z</time>
      </trkpt>
      <trkpt lat="45.04079" lon="3.89262">
        <ele>653.1</ele>
        <time>2023-02-07T16:08:16Z</time>
      </trkpt>
      <trkpt lat="45.04049" lon="3.89325">
        <ele>658.1</ele>
        <time>2023-02-07T16:08:16Z</time>
      </trkpt>
      <trkpt lat="45.04035" lon="3.89388">
        <ele>662.5</ele>
        <time>2023-02-07T16:08:16Z</time>
      </trkpt>
      <trkpt lat="45.04025" lon="3.89448">
        <ele>666.3</ele>
        <time>2023-02-07T16:08:16Z</time>
      </trkpt>
      <trkpt lat="45.04004" lon="3.89532">
        <ele>671.7</ele>
        <time>2023-02-07T16:08:16Z</time>
      </trkpt>
      <trkpt lat="45.04004" lon="3.89532">
        <ele>671.7</ele>
        <time>2023-02-07T16:08:16Z</time>
      </trkpt>
      <trkpt lat="45.04" lon="3.89548">
        <ele>672.7</ele>
        <time>2023-02-07T16:08:16Z</time>
      </trkpt>
      <trkpt lat="45.03994" lon="3.8956">
        <ele>674</ele>
        <time>2023-02-07T16:08:16Z</time>
      </trkpt>
      <trkpt lat="45.03962" lon="3.8959">
        <ele>678.5</ele>
        <time>2023-02-07T16:08:16Z</time>
      </trkpt>
      <trkpt lat="45.03937" lon="3.89603">
        <ele>681.5</ele>
        <time>2023-02-07T16:08:16Z</time>
      </trkpt>
      <trkpt lat="45.03879" lon="3.89678">
        <ele>691.9</ele>
        <time>2023-02-07T16:08:16Z</time>
      </trkpt>
      <trkpt lat="45.0387" lon="3.897">
        <ele>694.3</ele>
        <time>2023-02-07T16:08:16Z</time>
      </trkpt>
      <trkpt lat="45.0378" lon="3.89699">
        <ele>700.1</ele>
        <time>2023-02-07T16:08:16Z</time>
      </trkpt>
      <trkpt lat="45.03768" lon="3.8969">
        <ele>701.4</ele>
        <time>2023-02-07T16:08:16Z</time>
      </trkpt>
      <trkpt lat="45.03757" lon="3.89703">
        <ele>704</ele>
        <time>2023-02-07T16:08:16Z</time>
      </trkpt>
      <trkpt lat="45.03754" lon="3.89712">
        <ele>705</ele>
        <time>2023-02-07T16:08:16Z</time>
      </trkpt>
      <trkpt lat="45.03754" lon="3.89712">
        <ele>705</ele>
        <time>2023-02-07T16:08:16Z</time>
      </trkpt>
      <trkpt lat="45.03747" lon="3.89736">
        <ele>706.4</ele>
        <time>2023-02-07T16:08:16Z</time>
      </trkpt>
      <trkpt lat="45.03725" lon="3.89762">
        <ele>712.4</ele>
        <time>2023-02-07T16:08:16Z</time>
      </trkpt>
      <trkpt lat="45.03675" lon="3.89799">
        <ele>722</ele>
        <time>2023-02-07T16:08:16Z</time>
      </trkpt>
      <trkpt lat="45.03565" lon="3.8991">
        <ele>750.9</ele>
        <time>2023-02-07T16:08:16Z</time>
      </trkpt>
      <trkpt lat="45.03553" lon="3.89936">
        <ele>753.6</ele>
        <time>2023-02-07T16:08:16Z</time>
      </trkpt>
      <trkpt lat="45.03538" lon="3.9001">
        <ele>758.8</ele>
        <time>2023-02-07T16:08:16Z</time>
      </trkpt>
      <trkpt lat="45.03531" lon="3.90021">
        <ele>760.7</ele>
        <time>2023-02-07T16:08:16Z</time>
      </trkpt>
      <trkpt lat="45.0353" lon="3.90035">
        <ele>761.4</ele>
        <time>2023-02-07T16:08:16Z</time>
      </trkpt>
      <trkpt lat="45.03499" lon="3.9007">
        <ele>767.9</ele>
        <time>2023-02-07T16:08:16Z</time>
      </trkpt>
      <trkpt lat="45.03483" lon="3.90115">
        <ele>774.3</ele>
        <time>2023-02-07T16:08:16Z</time>
      </trkpt>
      <trkpt lat="45.03475" lon="3.9012">
        <ele>776.5</ele>
        <time>2023-02-07T16:08:16Z</time>
      </trkpt>
      <trkpt lat="45.03475" lon="3.9012">
        <ele>776.5</ele>
        <time>2023-02-07T16:08:16Z</time>
      </trkpt>
      <trkpt lat="45.03376" lon="3.90153">
        <ele>779.3</ele>
        <time>2023-02-07T16:08:16Z</time>
      </trkpt>
      <trkpt lat="45.03308" lon="3.90205">
        <ele>777.2</ele>
        <time>2023-02-07T16:08:16Z</time>
      </trkpt>
      <trkpt lat="45.03281" lon="3.9019">
        <ele>773.8</ele>
        <time>2023-02-07T16:08:16Z</time>
      </trkpt>
      <trkpt lat="45.03269" lon="3.90178">
        <ele>772.5</ele>
        <time>2023-02-07T16:08:16Z</time>
      </trkpt>
      <trkpt lat="45.03262" lon="3.90175">
        <ele>771.4</ele>
        <time>2023-02-07T16:08:16Z</time>
      </trkpt>
      <trkpt lat="45.03253" lon="3.90176">
        <ele>769.5</ele>
        <time>2023-02-07T16:08:16Z</time>
      </trkpt>
      <trkpt lat="45.03234" lon="3.90189">
        <ele>765</ele>
        <time>2023-02-07T16:08:16Z</time>
      </trkpt>
      <trkpt lat="45.0322" lon="3.90213">
        <ele>761.8</ele>
        <time>2023-02-07T16:08:16Z</time>
      </trkpt>
      <trkpt lat="45.03219" lon="3.90236">
        <ele>759.9</ele>
        <time>2023-02-07T16:08:16Z</time>
      </trkpt>
      <trkpt lat="45.03217" lon="3.90246">
        <ele>758.6</ele>
        <time>2023-02-07T16:08:16Z</time>
      </trkpt>
      <trkpt lat="45.03207" lon="3.90259">
        <ele>756</ele>
        <time>2023-02-07T16:08:16Z</time>
      </trkpt>
      <trkpt lat="45.0317" lon="3.90265">
        <ele>753</ele>
        <time>2023-02-07T16:08:16Z</time>
      </trkpt>
      <trkpt lat="45.0317" lon="3.90265">
        <ele>753</ele>
        <time>2023-02-07T16:08:16Z</time>
      </trkpt>
      <trkpt lat="45.03157" lon="3.90273">
        <ele>752.3</ele>
        <time>2023-02-07T16:08:16Z</time>
      </trkpt>
      <trkpt lat="45.03152" lon="3.90286">
        <ele>751.6</ele>
        <time>2023-02-07T16:08:16Z</time>
      </trkpt>
      <trkpt lat="45.03151" lon="3.90297">
        <ele>751</ele>
        <time>2023-02-07T16:08:16Z</time>
      </trkpt>
      <trkpt lat="45.03176" lon="3.90542">
        <ele>748</ele>
        <time>2023-02-07T16:08:16Z</time>
      </trkpt>
      <trkpt lat="45.03161" lon="3.9055">
        <ele>748.6</ele>
        <time>2023-02-07T16:08:16Z</time>
      </trkpt>
      <trkpt lat="45.03106" lon="3.9055">
        <ele>747.8</ele>
        <time>2023-02-07T16:08:16Z</time>
      </trkpt>
      <trkpt lat="45.03098" lon="3.90553">
        <ele>747.9</ele>
        <time>2023-02-07T16:08:16Z</time>
      </trkpt>
      <trkpt lat="45.03094" lon="3.90563">
        <ele>748.3</ele>
        <time>2023-02-07T16:08:16Z</time>
      </trkpt>
      <trkpt lat="45.03102" lon="3.90596">
        <ele>749.8</ele>
        <time>2023-02-07T16:08:16Z</time>
      </trkpt>
      <trkpt lat="45.03099" lon="3.90635">
        <ele>750.9</ele>
        <time>2023-02-07T16:08:16Z</time>
      </trkpt>
      <trkpt lat="45.03115" lon="3.90699">
        <ele>754.4</ele>
        <time>2023-02-07T16:08:16Z</time>
      </trkpt>
      <trkpt lat="45.03115" lon="3.90699">
        <ele>754.4</ele>
        <time>2023-02-07T16:08:16Z</time>
      </trkpt>
      <trkpt lat="45.0308" lon="3.90731">
        <ele>757.6</ele>
        <time>2023-02-07T16:08:16Z</time>
      </trkpt>
      <trkpt lat="45.03012" lon="3.90762">
        <ele>761.5</ele>
        <time>2023-02-07T16:08:16Z</time>
      </trkpt>
      <trkpt lat="45.03004" lon="3.90769">
        <ele>762.2</ele>
        <time>2023-02-07T16:08:16Z</time>
      </trkpt>
      <trkpt lat="45.02983" lon="3.90805">
        <ele>766.1</ele>
        <time>2023-02-07T16:08:16Z</time>
      </trkpt>
      <trkpt lat="45.02965" lon="3.90825">
        <ele>769.1</ele>
        <time>2023-02-07T16:08:16Z</time>
      </trkpt>
      <trkpt lat="45.02937" lon="3.90877">
        <ele>776.8</ele>
        <time>2023-02-07T16:08:16Z</time>
      </trkpt>
      <trkpt lat="45.02908" lon="3.90903">
        <ele>784.7</ele>
        <time>2023-02-07T16:08:16Z</time>
      </trkpt>
      <trkpt lat="45.02884" lon="3.90914">
        <ele>788.8</ele>
        <time>2023-02-07T16:08:16Z</time>
      </trkpt>
      <trkpt lat="45.0281" lon="3.90966">
        <ele>805</ele>
        <time>2023-02-07T16:08:16Z</time>
      </trkpt>
      <trkpt lat="45.02737" lon="3.90995">
        <ele>810.9</ele>
        <time>2023-02-07T16:08:16Z</time>
      </trkpt>
      <trkpt lat="45.02732" lon="3.91003">
        <ele>811.8</ele>
        <time>2023-02-07T16:08:16Z</time>
      </trkpt>
      <trkpt lat="45.02718" lon="3.91014">
        <ele>813.3</ele>
        <time>2023-02-07T16:08:16Z</time>
      </trkpt>
      <trkpt lat="45.02705" lon="3.91017">
        <ele>814.4</ele>
        <time>2023-02-07T16:08:16Z</time>
      </trkpt>
      <trkpt lat="45.02618" lon="3.91015">
        <ele>819.3</ele>
        <time>2023-02-07T16:08:16Z</time>
      </trkpt>
      <trkpt lat="45.02521" lon="3.91045">
        <ele>823.5</ele>
        <time>2023-02-07T16:08:16Z</time>
      </trkpt>
      <trkpt lat="45.02514" lon="3.91049">
        <ele>824</ele>
        <time>2023-02-07T16:08:16Z</time>
      </trkpt>
      <trkpt lat="45.02505" lon="3.91059">
        <ele>825</ele>
        <time>2023-02-07T16:08:16Z</time>
      </trkpt>
      <trkpt lat="45.02479" lon="3.91058">
        <ele>826.6</ele>
        <time>2023-02-07T16:08:16Z</time>
      </trkpt>
      <trkpt lat="45.02448" lon="3.91052">
        <ele>827.9</ele>
        <time>2023-02-07T16:08:16Z</time>
      </trkpt>
      <trkpt lat="45.02415" lon="3.91057">
        <ele>830.2</ele>
        <time>2023-02-07T16:08:16Z</time>
      </trkpt>
      <trkpt lat="45.02392" lon="3.91067">
        <ele>831.4</ele>
        <time>2023-02-07T16:08:16Z</time>
      </trkpt>
      <trkpt lat="45.02382" lon="3.91078">
        <ele>831.4</ele>
        <time>2023-02-07T16:08:16Z</time>
      </trkpt>
      <trkpt lat="45.02245" lon="3.91158">
        <ele>832</ele>
        <time>2023-02-07T16:08:16Z</time>
      </trkpt>
      <trkpt lat="45.02245" lon="3.91158">
        <ele>832</ele>
        <time>2023-02-07T16:08:16Z</time>
      </trkpt>
      <trkpt lat="45.02175" lon="3.91214">
        <ele>829.3</ele>
        <time>2023-02-07T16:08:16Z</time>
      </trkpt>
      <trkpt lat="45.02096" lon="3.91328">
        <ele>823.8</ele>
        <time>2023-02-07T16:08:16Z</time>
      </trkpt>
      <trkpt lat="45.02085" lon="3.91333">
        <ele>823.1</ele>
        <time>2023-02-07T16:08:16Z</time>
      </trkpt>
      <trkpt lat="45.02018" lon="3.91337">
        <ele>817.8</ele>
        <time>2023-02-07T16:08:16Z</time>
      </trkpt>
      <trkpt lat="45.01888" lon="3.91387">
        <ele>800</ele>
        <time>2023-02-07T16:08:16Z</time>
      </trkpt>
      <trkpt lat="45.01712" lon="3.91419">
        <ele>793.6</ele>
        <time>2023-02-07T16:08:16Z</time>
      </trkpt>
      <trkpt lat="45.01699" lon="3.91428">
        <ele>793.2</ele>
        <time>2023-02-07T16:08:16Z</time>
      </trkpt>
      <trkpt lat="45.01652" lon="3.9147">
        <ele>792</ele>
        <time>2023-02-07T16:08:16Z</time>
      </trkpt>
      <trkpt lat="45.01629" lon="3.91482">
        <ele>792</ele>
        <time>2023-02-07T16:08:16Z</time>
      </trkpt>
      <trkpt lat="45.01605" lon="3.91486">
        <ele>792</ele>
        <time>2023-02-07T16:08:16Z</time>
      </trkpt>
      <trkpt lat="45.01605" lon="3.91486">
        <ele>792</ele>
        <time>2023-02-07T16:08:16Z</time>
      </trkpt>
      <trkpt lat="45.01594" lon="3.91484">
        <ele>792</ele>
        <time>2023-02-07T16:08:16Z</time>
      </trkpt>
      <trkpt lat="45.01586" lon="3.91448">
        <ele>791.2</ele>
        <time>2023-02-07T16:08:16Z</time>
      </trkpt>
      <trkpt lat="45.01557" lon="3.9137">
        <ele>789</ele>
        <time>2023-02-07T16:08:16Z</time>
      </trkpt>
      <trkpt lat="45.01546" lon="3.91362">
        <ele>788.3</ele>
        <time>2023-02-07T16:08:16Z</time>
      </trkpt>
      <trkpt lat="45.01535" lon="3.91363">
        <ele>787.4</ele>
        <time>2023-02-07T16:08:16Z</time>
      </trkpt>
      <trkpt lat="45.01516" lon="3.91376">
        <ele>785.7</ele>
        <time>2023-02-07T16:08:16Z</time>
      </trkpt>
      <trkpt lat="45.01496" lon="3.91382">
        <ele>784.5</ele>
        <time>2023-02-07T16:08:16Z</time>
      </trkpt>
      <trkpt lat="45.0145" lon="3.91368">
        <ele>784.3</ele>
        <time>2023-02-07T16:08:16Z</time>
      </trkpt>
      <trkpt lat="45.01423" lon="3.91344">
        <ele>785.1</ele>
        <time>2023-02-07T16:08:16Z</time>
      </trkpt>
      <trkpt lat="45.01414" lon="3.91345">
        <ele>784.8</ele>
        <time>2023-02-07T16:08:16Z</time>
      </trkpt>
      <trkpt lat="45.01399" lon="3.91372">
        <ele>785.3</ele>
        <time>2023-02-07T16:08:16Z</time>
      </trkpt>
      <trkpt lat="45.01384" lon="3.91383">
        <ele>786.8</ele>
        <time>2023-02-07T16:08:16Z</time>
      </trkpt>
      <trkpt lat="45.0136" lon="3.91391">
        <ele>787</ele>
        <time>2023-02-07T16:08:16Z</time>
      </trkpt>
      <trkpt lat="45.01342" lon="3.91408">
        <ele>785.9</ele>
        <time>2023-02-07T16:08:16Z</time>
      </trkpt>
      <trkpt lat="45.013" lon="3.91249">
        <ele>787</ele>
        <time>2023-02-07T16:08:16Z</time>
      </trkpt>
      <trkpt lat="45.01299" lon="3.91237">
        <ele>787.4</ele>
        <time>2023-02-07T16:08:16Z</time>
      </trkpt>
      <trkpt lat="45.01342" lon="3.90991">
        <ele>791.4</ele>
        <time>2023-02-07T16:08:16Z</time>
      </trkpt>
      <trkpt lat="45.0134" lon="3.9094">
        <ele>793.4</ele>
        <time>2023-02-07T16:08:16Z</time>
      </trkpt>
      <trkpt lat="45.01343" lon="3.90917">
        <ele>794.3</ele>
        <time>2023-02-07T16:08:16Z</time>
      </trkpt>
      <trkpt lat="45.0135" lon="3.90899">
        <ele>795.9</ele>
        <time>2023-02-07T16:08:16Z</time>
      </trkpt>
      <trkpt lat="45.01349" lon="3.90882">
        <ele>797.5</ele>
        <time>2023-02-07T16:08:16Z</time>
      </trkpt>
      <trkpt lat="45.01333" lon="3.9086">
        <ele>800.1</ele>
        <time>2023-02-07T16:08:16Z</time>
      </trkpt>
      <trkpt lat="45.01275" lon="3.90748">
        <ele>806</ele>
        <time>2023-02-07T16:08:16Z</time>
      </trkpt>
      <trkpt lat="45.01252" lon="3.90713">
        <ele>807.1</ele>
        <time>2023-02-07T16:08:16Z</time>
      </trkpt>
      <trkpt lat="45.01247" lon="3.907">
        <ele>807.1</ele>
        <time>2023-02-07T16:08:16Z</time>
      </trkpt>
      <trkpt lat="45.01245" lon="3.90688">
        <ele>807.4</ele>
        <time>2023-02-07T16:08:16Z</time>
      </trkpt>
      <trkpt lat="45.01245" lon="3.90688">
        <ele>807.4</ele>
        <time>2023-02-07T16:08:16Z</time>
      </trkpt>
      <trkpt lat="45.01243" lon="3.90676">
        <ele>807.7</ele>
        <time>2023-02-07T16:08:16Z</time>
      </trkpt>
      <trkpt lat="45.01228" lon="3.90678">
        <ele>807.9</ele>
        <time>2023-02-07T16:08:16Z</time>
      </trkpt>
      <trkpt lat="45.0114" lon="3.90784">
        <ele>803.5</ele>
        <time>2023-02-07T16:08:16Z</time>
      </trkpt>
      <trkpt lat="45.01011" lon="3.91082">
        <ele>792.8</ele>
        <time>2023-02-07T16:08:16Z</time>
      </trkpt>
      <trkpt lat="45.00993" lon="3.91104">
        <ele>790.2</ele>
        <time>2023-02-07T16:08:16Z</time>
      </trkpt>
      <trkpt lat="45.0098" lon="3.91109">
        <ele>788.3</ele>
        <time>2023-02-07T16:08:16Z</time>
      </trkpt>
      <trkpt lat="45.00959" lon="3.91103">
        <ele>786.2</ele>
        <time>2023-02-07T16:08:16Z</time>
      </trkpt>
      <trkpt lat="45.00884" lon="3.91066">
        <ele>779.5</ele>
        <time>2023-02-07T16:08:16Z</time>
      </trkpt>
      <trkpt lat="45.00809" lon="3.91061">
        <ele>770.3</ele>
        <time>2023-02-07T16:08:16Z</time>
      </trkpt>
      <trkpt lat="45.0073" lon="3.91074">
        <ele>760.2</ele>
        <time>2023-02-07T16:08:16Z</time>
      </trkpt>
      <trkpt lat="45.00615" lon="3.91182">
        <ele>745.8</ele>
        <time>2023-02-07T16:08:16Z</time>
      </trkpt>
      <trkpt lat="45.00609" lon="3.91195">
        <ele>743.8</ele>
        <time>2023-02-07T16:08:16Z</time>
      </trkpt>
      <trkpt lat="45.0061" lon="3.9122">
        <ele>740.3</ele>
        <time>2023-02-07T16:08:16Z</time>
      </trkpt>
      <trkpt lat="45.00601" lon="3.91233">
        <ele>738.2</ele>
        <time>2023-02-07T16:08:16Z</time>
      </trkpt>
      <trkpt lat="45.00573" lon="3.91239">
        <ele>734.9</ele>
        <time>2023-02-07T16:08:16Z</time>
      </trkpt>
      <trkpt lat="45.00558" lon="3.91236">
        <ele>733.3</ele>
        <time>2023-02-07T16:08:16Z</time>
      </trkpt>
      <trkpt lat="45.00534" lon="3.91247">
        <ele>730</ele>
        <time>2023-02-07T16:08:16Z</time>
      </trkpt>
      <trkpt lat="45.00516" lon="3.9126">
        <ele>727.5</ele>
        <time>2023-02-07T16:08:16Z</time>
      </trkpt>
      <trkpt lat="45.00522" lon="3.9127">
        <ele>726.7</ele>
        <time>2023-02-07T16:08:16Z</time>
      </trkpt>
      <trkpt lat="45.00522" lon="3.9127">
        <ele>726.7</ele>
        <time>2023-02-07T16:08:16Z</time>
      </trkpt>
      <trkpt lat="45.00516" lon="3.9126">
        <ele>727.5</ele>
        <time>2023-02-07T16:08:16Z</time>
      </trkpt>
      <trkpt lat="45.0047" lon="3.91306">
        <ele>722.6</ele>
        <time>2023-02-07T16:08:16Z</time>
      </trkpt>
      <trkpt lat="45.0046" lon="3.91305">
        <ele>721.3</ele>
        <time>2023-02-07T16:08:16Z</time>
      </trkpt>
      <trkpt lat="45.00457" lon="3.91318">
        <ele>721.4</ele>
        <time>2023-02-07T16:08:16Z</time>
      </trkpt>
      <trkpt lat="45.0043" lon="3.91345">
        <ele>721.1</ele>
        <time>2023-02-07T16:08:16Z</time>
      </trkpt>
      <trkpt lat="45.0043" lon="3.91345">
        <ele>721.1</ele>
        <time>2023-02-07T16:08:16Z</time>
      </trkpt>
      <trkpt lat="45.00423" lon="3.91349">
        <ele>720.4</ele>
        <time>2023-02-07T16:08:16Z</time>
      </trkpt>
      <trkpt lat="45.00349" lon="3.91304">
        <ele>713.8</ele>
        <time>2023-02-07T16:08:16Z</time>
      </trkpt>
      <trkpt lat="45.00332" lon="3.91298">
        <ele>712.1</ele>
        <time>2023-02-07T16:08:16Z</time>
      </trkpt>
      <trkpt lat="45.00332" lon="3.91298">
        <ele>712.1</ele>
        <time>2023-02-07T16:08:16Z</time>
      </trkpt>
      <trkpt lat="45.0032" lon="3.91296">
        <ele>710.4</ele>
        <time>2023-02-07T16:08:16Z</time>
      </trkpt>
      <trkpt lat="45.0031" lon="3.91301">
        <ele>708.8</ele>
        <time>2023-02-07T16:08:16Z</time>
      </trkpt>
      <trkpt lat="45.00306" lon="3.91312">
        <ele>707.4</ele>
        <time>2023-02-07T16:08:16Z</time>
      </trkpt>
      <trkpt lat="45.00313" lon="3.91416">
        <ele>695.7</ele>
        <time>2023-02-07T16:08:16Z</time>
      </trkpt>
      <trkpt lat="45.00308" lon="3.91426">
        <ele>693.7</ele>
        <time>2023-02-07T16:08:16Z</time>
      </trkpt>
      <trkpt lat="45.00308" lon="3.91426">
        <ele>693.7</ele>
        <time>2023-02-07T16:08:16Z</time>
      </trkpt>
      <trkpt lat="45.00265" lon="3.91466">
        <ele>687.2</ele>
        <time>2023-02-07T16:08:16Z</time>
      </trkpt>
      <trkpt lat="45.00077" lon="3.91577">
        <ele>673.2</ele>
        <time>2023-02-07T16:08:16Z</time>
      </trkpt>
      <trkpt lat="45.00078" lon="3.91591">
        <ele>670.3</ele>
        <time>2023-02-07T16:08:16Z</time>
      </trkpt>
      <trkpt lat="45.00094" lon="3.91607">
        <ele>668.2</ele>
        <time>2023-02-07T16:08:16Z</time>
      </trkpt>
      <trkpt lat="45.00094" lon="3.91607">
        <ele>668.2</ele>
        <time>2023-02-07T16:08:16Z</time>
      </trkpt>
      <trkpt lat="45.00107" lon="3.91627">
        <ele>665.9</ele>
        <time>2023-02-07T16:08:16Z</time>
      </trkpt>
      <trkpt lat="45.00108" lon="3.91649">
        <ele>663</ele>
        <time>2023-02-07T16:08:16Z</time>
      </trkpt>
      <trkpt lat="45.00104" lon="3.91693">
        <ele>660.5</ele>
        <time>2023-02-07T16:08:16Z</time>
      </trkpt>
      <trkpt lat="45.00095" lon="3.91716">
        <ele>659.4</ele>
        <time>2023-02-07T16:08:16Z</time>
      </trkpt>
      <trkpt lat="45.00095" lon="3.91716">
        <ele>659.4</ele>
        <time>2023-02-07T16:08:16Z</time>
      </trkpt>
      <trkpt lat="45.00101" lon="3.917">
        <ele>660.2</ele>
        <time>2023-02-07T16:08:16Z</time>
      </trkpt>
      <trkpt lat="44.99967" lon="3.91704">
        <ele>646.5</ele>
        <time>2023-02-07T16:08:16Z</time>
      </trkpt>
      <trkpt lat="44.99955" lon="3.917">
        <ele>644.5</ele>
        <time>2023-02-07T16:08:16Z</time>
      </trkpt>
      <trkpt lat="44.99932" lon="3.91704">
        <ele>640.8</ele>
        <time>2023-02-07T16:08:16Z</time>
      </trkpt>
      <trkpt lat="44.99917" lon="3.91715">
        <ele>638.4</ele>
        <time>2023-02-07T16:08:16Z</time>
      </trkpt>
      <trkpt lat="44.99895" lon="3.9174">
        <ele>634.9</ele>
        <time>2023-02-07T16:08:16Z</time>
      </trkpt>
      <trkpt lat="44.99886" lon="3.91748">
        <ele>633.3</ele>
        <time>2023-02-07T16:08:16Z</time>
      </trkpt>
      <trkpt lat="44.99874" lon="3.91697">
        <ele>633.3</ele>
        <time>2023-02-07T16:08:16Z</time>
      </trkpt>
      <trkpt lat="44.99746" lon="3.91738">
        <ele>630.4</ele>
        <time>2023-02-07T16:08:16Z</time>
      </trkpt>
      <trkpt lat="44.9974" lon="3.91745">
        <ele>630.5</ele>
        <time>2023-02-07T16:08:16Z</time>
      </trkpt>
      <trkpt lat="44.9973" lon="3.91739">
        <ele>629.9</ele>
        <time>2023-02-07T16:08:16Z</time>
      </trkpt>
      <trkpt lat="44.99722" lon="3.9173">
        <ele>629.3</ele>
        <time>2023-02-07T16:08:16Z</time>
      </trkpt>
      <trkpt lat="44.99736" lon="3.91716">
        <ele>629.4</ele>
        <time>2023-02-07T16:08:16Z</time>
      </trkpt>
      <trkpt lat="44.99762" lon="3.91704">
        <ele>627.6</ele>
        <time>2023-02-07T16:08:16Z</time>
      </trkpt>
      <trkpt lat="44.99768" lon="3.91697">
        <ele>626.8</ele>
        <time>2023-02-07T16:08:16Z</time>
      </trkpt>
      <trkpt lat="44.99777" lon="3.91715">
        <ele>626.8</ele>
        <time>2023-02-07T16:08:16Z</time>
      </trkpt>
      <trkpt lat="44.99786" lon="3.9175">
        <ele>626.6</ele>
        <time>2023-02-07T16:08:16Z</time>
      </trkpt>
      <trkpt lat="44.99786" lon="3.9175">
        <ele>626.6</ele>
        <time>2023-02-07T16:08:16Z</time>
      </trkpt>
      <trkpt lat="44.99788" lon="3.91773">
        <ele>626.2</ele>
        <time>2023-02-07T16:08:16Z</time>
      </trkpt>
      <trkpt lat="44.99785" lon="3.91792">
        <ele>627.1</ele>
        <time>2023-02-07T16:08:16Z</time>
      </trkpt>
      <trkpt lat="44.99768" lon="3.91813">
        <ele>628.1</ele>
        <time>2023-02-07T16:08:16Z</time>
      </trkpt>
      <trkpt lat="44.9976" lon="3.91819">
        <ele>628.3</ele>
        <time>2023-02-07T16:08:16Z</time>
      </trkpt>
      <trkpt lat="44.99703" lon="3.91836">
        <ele>630.4</ele>
        <time>2023-02-07T16:08:16Z</time>
      </trkpt>
      <trkpt lat="44.99697" lon="3.91821">
        <ele>630.4</ele>
        <time>2023-02-07T16:08:16Z</time>
      </trkpt>
      <trkpt lat="44.99679" lon="3.91832">
        <ele>631</ele>
        <time>2023-02-07T16:08:16Z</time>
      </trkpt>
      <trkpt lat="44.99649" lon="3.9184">
        <ele>631.6</ele>
        <time>2023-02-07T16:08:16Z</time>
      </trkpt>
      <trkpt lat="44.99608" lon="3.91834">
        <ele>633.1</ele>
        <time>2023-02-07T16:08:16Z</time>
      </trkpt>
      <trkpt lat="44.99491" lon="3.9178">
        <ele>644.9</ele>
        <time>2023-02-07T16:08:16Z</time>
      </trkpt>
      <trkpt lat="44.99491" lon="3.9178">
        <ele>644.9</ele>
        <time>2023-02-07T16:08:16Z</time>
      </trkpt>
      <trkpt lat="44.99479" lon="3.91776">
        <ele>646.6</ele>
        <time>2023-02-07T16:08:16Z</time>
      </trkpt>
      <trkpt lat="44.99466" lon="3.91782">
        <ele>649.1</ele>
        <time>2023-02-07T16:08:16Z</time>
      </trkpt>
      <trkpt lat="44.99363" lon="3.91901">
        <ele>663.2</ele>
        <time>2023-02-07T16:08:16Z</time>
      </trkpt>
      <trkpt lat="44.99277" lon="3.92068">
        <ele>678</ele>
        <time>2023-02-07T16:08:16Z</time>
      </trkpt>
      <trkpt lat="44.99277" lon="3.92068">
        <ele>678</ele>
        <time>2023-02-07T16:08:16Z</time>
      </trkpt>
      <trkpt lat="44.99273" lon="3.92076">
        <ele>678.4</ele>
        <time>2023-02-07T16:08:16Z</time>
      </trkpt>
      <trkpt lat="44.99175" lon="3.9205">
        <ele>688.5</ele>
        <time>2023-02-07T16:08:16Z</time>
      </trkpt>
      <trkpt lat="44.99168" lon="3.92044">
        <ele>689.7</ele>
        <time>2023-02-07T16:08:16Z</time>
      </trkpt>
      <trkpt lat="44.99156" lon="3.92024">
        <ele>692.8</ele>
        <time>2023-02-07T16:08:16Z</time>
      </trkpt>
      <trkpt lat="44.99132" lon="3.91955">
        <ele>702.2</ele>
        <time>2023-02-07T16:08:16Z</time>
      </trkpt>
      <trkpt lat="44.99067" lon="3.91874">
        <ele>714.4</ele>
        <time>2023-02-07T16:08:16Z</time>
      </trkpt>
      <trkpt lat="44.99062" lon="3.91862">
        <ele>715.9</ele>
        <time>2023-02-07T16:08:16Z</time>
      </trkpt>
      <trkpt lat="44.99057" lon="3.91834">
        <ele>718.7</ele>
        <time>2023-02-07T16:08:16Z</time>
      </trkpt>
      <trkpt lat="44.99064" lon="3.91769">
        <ele>722.8</ele>
        <time>2023-02-07T16:08:16Z</time>
      </trkpt>
      <trkpt lat="44.99077" lon="3.91709">
        <ele>730.2</ele>
        <time>2023-02-07T16:08:16Z</time>
      </trkpt>
      <trkpt lat="44.99076" lon="3.91697">
        <ele>732.1</ele>
        <time>2023-02-07T16:08:16Z</time>
      </trkpt>
      <trkpt lat="44.99034" lon="3.91674">
        <ele>738.5</ele>
        <time>2023-02-07T16:08:16Z</time>
      </trkpt>
      <trkpt lat="44.99027" lon="3.91664">
        <ele>740.3</ele>
        <time>2023-02-07T16:08:16Z</time>
      </trkpt>
      <trkpt lat="44.99092" lon="3.91577">
        <ele>748.1</ele>
        <time>2023-02-07T16:08:16Z</time>
      </trkpt>
      <trkpt lat="44.99092" lon="3.91564">
        <ele>749.8</ele>
        <time>2023-02-07T16:08:16Z</time>
      </trkpt>
      <trkpt lat="44.98984" lon="3.91523">
        <ele>765</ele>
        <time>2023-02-07T16:08:16Z</time>
      </trkpt>
      <trkpt lat="44.98974" lon="3.91513">
        <ele>766.1</ele>
        <time>2023-02-07T16:08:16Z</time>
      </trkpt>
      <trkpt lat="44.989" lon="3.91383">
        <ele>772.6</ele>
        <time>2023-02-07T16:08:16Z</time>
      </trkpt>
      <trkpt lat="44.98874" lon="3.91357">
        <ele>775.1</ele>
        <time>2023-02-07T16:08:16Z</time>
      </trkpt>
      <trkpt lat="44.9886" lon="3.91349">
        <ele>776.3</ele>
        <time>2023-02-07T16:08:16Z</time>
      </trkpt>
      <trkpt lat="44.98842" lon="3.91345">
        <ele>776.1</ele>
        <time>2023-02-07T16:08:16Z</time>
      </trkpt>
      <trkpt lat="44.98842" lon="3.91345">
        <ele>776.1</ele>
        <time>2023-02-07T16:08:16Z</time>
      </trkpt>
      <trkpt lat="44.98809" lon="3.9134">
        <ele>775.7</ele>
        <time>2023-02-07T16:08:16Z</time>
      </trkpt>
      <trkpt lat="44.98684" lon="3.91382">
        <ele>786.6</ele>
        <time>2023-02-07T16:08:16Z</time>
      </trkpt>
      <trkpt lat="44.98652" lon="3.9138">
        <ele>790.9</ele>
        <time>2023-02-07T16:08:16Z</time>
      </trkpt>
      <trkpt lat="44.98633" lon="3.91383">
        <ele>793.5</ele>
        <time>2023-02-07T16:08:16Z</time>
      </trkpt>
      <trkpt lat="44.98612" lon="3.91383">
        <ele>796.7</ele>
        <time>2023-02-07T16:08:16Z</time>
      </trkpt>
      <trkpt lat="44.98604" lon="3.91385">
        <ele>797.9</ele>
        <time>2023-02-07T16:08:16Z</time>
      </trkpt>
      <trkpt lat="44.98515" lon="3.91447">
        <ele>808.7</ele>
        <time>2023-02-07T16:08:16Z</time>
      </trkpt>
      <trkpt lat="44.98507" lon="3.91443">
        <ele>809.4</ele>
        <time>2023-02-07T16:08:16Z</time>
      </trkpt>
      <trkpt lat="44.98503" lon="3.91433">
        <ele>809.5</ele>
        <time>2023-02-07T16:08:16Z</time>
      </trkpt>
      <trkpt lat="44.98427" lon="3.91347">
        <ele>808.5</ele>
        <time>2023-02-07T16:08:16Z</time>
      </trkpt>
      <trkpt lat="44.98427" lon="3.91347">
        <ele>808.5</ele>
        <time>2023-02-07T16:08:16Z</time>
      </trkpt>
      <trkpt lat="44.98409" lon="3.91375">
        <ele>809.5</ele>
        <time>2023-02-07T16:08:16Z</time>
      </trkpt>
      <trkpt lat="44.98405" lon="3.91399">
        <ele>810</ele>
        <time>2023-02-07T16:08:16Z</time>
      </trkpt>
      <trkpt lat="44.98406" lon="3.91491">
        <ele>812.1</ele>
        <time>2023-02-07T16:08:16Z</time>
      </trkpt>
      <trkpt lat="44.98396" lon="3.91525">
        <ele>813.6</ele>
        <time>2023-02-07T16:08:16Z</time>
      </trkpt>
      <trkpt lat="44.98361" lon="3.91583">
        <ele>817</ele>
        <time>2023-02-07T16:08:16Z</time>
      </trkpt>
      <trkpt lat="44.98273" lon="3.9169">
        <ele>821.3</ele>
        <time>2023-02-07T16:08:16Z</time>
      </trkpt>
      <trkpt lat="44.98248" lon="3.91701">
        <ele>823.8</ele>
        <time>2023-02-07T16:08:16Z</time>
      </trkpt>
      <trkpt lat="44.98213" lon="3.91684">
        <ele>828.2</ele>
        <time>2023-02-07T16:08:16Z</time>
      </trkpt>
      <trkpt lat="44.98199" lon="3.91682">
        <ele>829.3</ele>
        <time>2023-02-07T16:08:16Z</time>
      </trkpt>
      <trkpt lat="44.98179" lon="3.91688">
        <ele>831.5</ele>
        <time>2023-02-07T16:08:16Z</time>
      </trkpt>
      <trkpt lat="44.98171" lon="3.91693">
        <ele>832.6</ele>
        <time>2023-02-07T16:08:16Z</time>
      </trkpt>
      <trkpt lat="44.98163" lon="3.91704">
        <ele>834.2</ele>
        <time>2023-02-07T16:08:16Z</time>
      </trkpt>
      <trkpt lat="44.98147" lon="3.91744">
        <ele>838.4</ele>
        <time>2023-02-07T16:08:16Z</time>
      </trkpt>
      <trkpt lat="44.98141" lon="3.91787">
        <ele>841.6</ele>
        <time>2023-02-07T16:08:16Z</time>
      </trkpt>
      <trkpt lat="44.98145" lon="3.91834">
        <ele>842.6</ele>
        <time>2023-02-07T16:08:16Z</time>
      </trkpt>
      <trkpt lat="44.98142" lon="3.91852">
        <ele>842.8</ele>
        <time>2023-02-07T16:08:16Z</time>
      </trkpt>
      <trkpt lat="44.97958" lon="3.92141">
        <ele>856.5</ele>
        <time>2023-02-07T16:08:16Z</time>
      </trkpt>
      <trkpt lat="44.97958" lon="3.92141">
        <ele>856.5</ele>
        <time>2023-02-07T16:08:16Z</time>
      </trkpt>
      <trkpt lat="44.97754" lon="3.92514">
        <ele>883.7</ele>
        <time>2023-02-07T16:08:16Z</time>
      </trkpt>
      <trkpt lat="44.97705" lon="3.92562">
        <ele>887.8</ele>
        <time>2023-02-07T16:08:16Z</time>
      </trkpt>
      <trkpt lat="44.97584" lon="3.92742">
        <ele>887.2</ele>
        <time>2023-02-07T16:08:16Z</time>
      </trkpt>
      <trkpt lat="44.97505" lon="3.92787">
        <ele>884.4</ele>
        <time>2023-02-07T16:08:16Z</time>
      </trkpt>
      <trkpt lat="44.97406" lon="3.9283">
        <ele>883.1</ele>
        <time>2023-02-07T16:08:16Z</time>
      </trkpt>
      <trkpt lat="44.97347" lon="3.92913">
        <ele>878.6</ele>
        <time>2023-02-07T16:08:16Z</time>
      </trkpt>
      <trkpt lat="44.97347" lon="3.92913">
        <ele>878.6</ele>
        <time>2023-02-07T16:08:16Z</time>
      </trkpt>
      <trkpt lat="44.97328" lon="3.92958">
        <ele>877.5</ele>
        <time>2023-02-07T16:08:16Z</time>
      </trkpt>
      <trkpt lat="44.97323" lon="3.92976">
        <ele>876.8</ele>
        <time>2023-02-07T16:08:16Z</time>
      </trkpt>
      <trkpt lat="44.97281" lon="3.93065">
        <ele>877.7</ele>
        <time>2023-02-07T16:08:16Z</time>
      </trkpt>
      <trkpt lat="44.97135" lon="3.93449">
        <ele>888.3</ele>
        <time>2023-02-07T16:08:16Z</time>
      </trkpt>
      <trkpt lat="44.97069" lon="3.93546">
        <ele>889.6</ele>
        <time>2023-02-07T16:08:16Z</time>
      </trkpt>
      <trkpt lat="44.97056" lon="3.93583">
        <ele>892</ele>
        <time>2023-02-07T16:08:16Z</time>
      </trkpt>
      <trkpt lat="44.96821" lon="3.94007">
        <ele>887.4</ele>
        <time>2023-02-07T16:08:16Z</time>
      </trkpt>
      <trkpt lat="44.96797" lon="3.94029">
        <ele>888</ele>
        <time>2023-02-07T16:08:16Z</time>
      </trkpt>
      <trkpt lat="44.96797" lon="3.94029">
        <ele>888</ele>
        <time>2023-02-07T16:08:16Z</time>
      </trkpt>
      <trkpt lat="44.96538" lon="3.94301">
        <ele>888.4</ele>
        <time>2023-02-07T16:08:16Z</time>
      </trkpt>
      <trkpt lat="44.96249" lon="3.94741">
        <ele>890.3</ele>
        <time>2023-02-07T16:08:16Z</time>
      </trkpt>
      <trkpt lat="44.96244" lon="3.94755">
        <ele>890.7</ele>
        <time>2023-02-07T16:08:16Z</time>
      </trkpt>
      <trkpt lat="44.96201" lon="3.94825">
        <ele>891.1</ele>
        <time>2023-02-07T16:08:16Z</time>
      </trkpt>
      <trkpt lat="44.96191" lon="3.94855">
        <ele>891.7</ele>
        <time>2023-02-07T16:08:16Z</time>
      </trkpt>
      <trkpt lat="44.96191" lon="3.94855">
        <ele>891.7</ele>
        <time>2023-02-07T16:08:16Z</time>
      </trkpt>
      <trkpt lat="44.96189" lon="3.94918">
        <ele>894.3</ele>
        <time>2023-02-07T16:08:16Z</time>
      </trkpt>
      <trkpt lat="44.96257" lon="3.95855">
        <ele>897.6</ele>
        <time>2023-02-07T16:08:16Z</time>
      </trkpt>
      <trkpt lat="44.96257" lon="3.95855">
        <ele>897.6</ele>
        <time>2023-02-07T16:08:16Z</time>
      </trkpt>
      <trkpt lat="44.96251" lon="3.95877">
        <ele>895.5</ele>
        <time>2023-02-07T16:08:16Z</time>
      </trkpt>
      <trkpt lat="44.96157" lon="3.96076">
        <ele>886.6</ele>
        <time>2023-02-07T16:08:16Z</time>
      </trkpt>
      <trkpt lat="44.96128" lon="3.96147">
        <ele>883.2</ele>
        <time>2023-02-07T16:08:16Z</time>
      </trkpt>
      <trkpt lat="44.96087" lon="3.96181">
        <ele>883.5</ele>
        <time>2023-02-07T16:08:16Z</time>
      </trkpt>
      <trkpt lat="44.96079" lon="3.96183">
        <ele>884</ele>
        <time>2023-02-07T16:08:16Z</time>
      </trkpt>
      <trkpt lat="44.9605" lon="3.96182">
        <ele>886.7</ele>
        <time>2023-02-07T16:08:16Z</time>
      </trkpt>
      <trkpt lat="44.96031" lon="3.96189">
        <ele>887.4</ele>
        <time>2023-02-07T16:08:16Z</time>
      </trkpt>
      <trkpt lat="44.96014" lon="3.96205">
        <ele>887.8</ele>
        <time>2023-02-07T16:08:16Z</time>
      </trkpt>
      <trkpt lat="44.95998" lon="3.96243">
        <ele>886.1</ele>
        <time>2023-02-07T16:08:16Z</time>
      </trkpt>
      <trkpt lat="44.95986" lon="3.9628">
        <ele>888.5</ele>
        <time>2023-02-07T16:08:16Z</time>
      </trkpt>
      <trkpt lat="44.9598" lon="3.96289">
        <ele>889.8</ele>
        <time>2023-02-07T16:08:16Z</time>
      </trkpt>
      <trkpt lat="44.95926" lon="3.96344">
        <ele>893.5</ele>
        <time>2023-02-07T16:08:16Z</time>
      </trkpt>
      <trkpt lat="44.95908" lon="3.96385">
        <ele>894.8</ele>
        <time>2023-02-07T16:08:16Z</time>
      </trkpt>
      <trkpt lat="44.95891" lon="3.96462">
        <ele>896.8</ele>
        <time>2023-02-07T16:08:16Z</time>
      </trkpt>
      <trkpt lat="44.95879" lon="3.96492">
        <ele>897</ele>
        <time>2023-02-07T16:08:16Z</time>
      </trkpt>
      <trkpt lat="44.95879" lon="3.96492">
        <ele>897</ele>
        <time>2023-02-07T16:08:16Z</time>
      </trkpt>
      <trkpt lat="44.95828" lon="3.96582">
        <ele>894.6</ele>
        <time>2023-02-07T16:08:16Z</time>
      </trkpt>
      <trkpt lat="44.95564" lon="3.96919">
        <ele>892.3</ele>
        <time>2023-02-07T16:08:16Z</time>
      </trkpt>
      <trkpt lat="44.95553" lon="3.96944">
        <ele>891.4</ele>
        <time>2023-02-07T16:08:16Z</time>
      </trkpt>
      <trkpt lat="44.95542" lon="3.97013">
        <ele>891</ele>
        <time>2023-02-07T16:08:16Z</time>
      </trkpt>
      <trkpt lat="44.95537" lon="3.97026">
        <ele>891.3</ele>
        <time>2023-02-07T16:08:16Z</time>
      </trkpt>
      <trkpt lat="44.95535" lon="3.97045">
        <ele>891.5</ele>
        <time>2023-02-07T16:08:16Z</time>
      </trkpt>
      <trkpt lat="44.9554" lon="3.97076">
        <ele>891.2</ele>
        <time>2023-02-07T16:08:16Z</time>
      </trkpt>
      <trkpt lat="44.9554" lon="3.97076">
        <ele>891.2</ele>
        <time>2023-02-07T16:08:16Z</time>
      </trkpt>
      <trkpt lat="44.95537" lon="3.97064">
        <ele>891.4</ele>
        <time>2023-02-07T16:08:16Z</time>
      </trkpt>
      <trkpt lat="44.95495" lon="3.97058">
        <ele>893.5</ele>
        <time>2023-02-07T16:08:16Z</time>
      </trkpt>
      <trkpt lat="44.95479" lon="3.97072">
        <ele>895.1</ele>
        <time>2023-02-07T16:08:16Z</time>
      </trkpt>
      <trkpt lat="44.95465" lon="3.97075">
        <ele>896.8</ele>
        <time>2023-02-07T16:08:16Z</time>
      </trkpt>
      <trkpt lat="44.95453" lon="3.971">
        <ele>899</ele>
        <time>2023-02-07T16:08:16Z</time>
      </trkpt>
      <trkpt lat="44.95386" lon="3.97106">
        <ele>908.8</ele>
        <time>2023-02-07T16:08:16Z</time>
      </trkpt>
      <trkpt lat="44.95347" lon="3.97117">
        <ele>915.6</ele>
        <time>2023-02-07T16:08:16Z</time>
      </trkpt>
      <trkpt lat="44.95338" lon="3.97123">
        <ele>917.2</ele>
        <time>2023-02-07T16:08:16Z</time>
      </trkpt>
      <trkpt lat="44.95339" lon="3.97103">
        <ele>918.3</ele>
        <time>2023-02-07T16:08:16Z</time>
      </trkpt>
      <trkpt lat="44.95334" lon="3.97094">
        <ele>920.1</ele>
        <time>2023-02-07T16:08:16Z</time>
      </trkpt>
      <trkpt lat="44.95287" lon="3.97082">
        <ele>932.9</ele>
        <time>2023-02-07T16:08:16Z</time>
      </trkpt>
      <trkpt lat="44.95208" lon="3.9704">
        <ele>951.4</ele>
        <time>2023-02-07T16:08:16Z</time>
      </trkpt>
      <trkpt lat="44.95122" lon="3.97022">
        <ele>971.5</ele>
        <time>2023-02-07T16:08:16Z</time>
      </trkpt>
      <trkpt lat="44.9503" lon="3.97038">
        <ele>978.9</ele>
        <time>2023-02-07T16:08:16Z</time>
      </trkpt>
      <trkpt lat="44.94954" lon="3.9703">
        <ele>979.1</ele>
        <time>2023-02-07T16:08:16Z</time>
      </trkpt>
      <trkpt lat="44.94945" lon="3.97032">
        <ele>979.2</ele>
        <time>2023-02-07T16:08:16Z</time>
      </trkpt>
      <trkpt lat="44.94875" lon="3.97002">
        <ele>979</ele>
        <time>2023-02-07T16:08:16Z</time>
      </trkpt>
      <trkpt lat="44.94866" lon="3.97002">
        <ele>979</ele>
        <time>2023-02-07T16:08:16Z</time>
      </trkpt>
      <trkpt lat="44.94829" lon="3.97022">
        <ele>978.8</ele>
        <time>2023-02-07T16:08:16Z</time>
      </trkpt>
      <trkpt lat="44.94782" lon="3.97068">
        <ele>980</ele>
        <time>2023-02-07T16:08:16Z</time>
      </trkpt>
      <trkpt lat="44.94773" lon="3.97073">
        <ele>979.9</ele>
        <time>2023-02-07T16:08:16Z</time>
      </trkpt>
      <trkpt lat="44.94779" lon="3.97093">
        <ele>980.4</ele>
        <time>2023-02-07T16:08:16Z</time>
      </trkpt>
      <trkpt lat="44.94779" lon="3.97093">
        <ele>980.4</ele>
        <time>2023-02-07T16:08:16Z</time>
      </trkpt>
      <trkpt lat="44.94784" lon="3.97112">
        <ele>981</ele>
        <time>2023-02-07T16:08:16Z</time>
      </trkpt>
      <trkpt lat="44.94782" lon="3.97132">
        <ele>981.6</ele>
        <time>2023-02-07T16:08:16Z</time>
      </trkpt>
      <trkpt lat="44.94768" lon="3.97151">
        <ele>982.1</ele>
        <time>2023-02-07T16:08:16Z</time>
      </trkpt>
      <trkpt lat="44.94749" lon="3.97166">
        <ele>982.9</ele>
        <time>2023-02-07T16:08:16Z</time>
      </trkpt>
      <trkpt lat="44.94737" lon="3.9717">
        <ele>982.6</ele>
        <time>2023-02-07T16:08:16Z</time>
      </trkpt>
      <trkpt lat="44.94714" lon="3.97167">
        <ele>982.3</ele>
        <time>2023-02-07T16:08:16Z</time>
      </trkpt>
      <trkpt lat="44.94667" lon="3.97179">
        <ele>983</ele>
        <time>2023-02-07T16:08:16Z</time>
      </trkpt>
      <trkpt lat="44.94621" lon="3.97216">
        <ele>983.8</ele>
        <time>2023-02-07T16:08:16Z</time>
      </trkpt>
      <trkpt lat="44.94608" lon="3.97236">
        <ele>983.2</ele>
        <time>2023-02-07T16:08:16Z</time>
      </trkpt>
      <trkpt lat="44.94603" lon="3.97248">
        <ele>981.9</ele>
        <time>2023-02-07T16:08:16Z</time>
      </trkpt>
      <trkpt lat="44.94586" lon="3.9733">
        <ele>983</ele>
        <time>2023-02-07T16:08:16Z</time>
      </trkpt>
      <trkpt lat="44.94586" lon="3.97341">
        <ele>983.8</ele>
        <time>2023-02-07T16:08:16Z</time>
      </trkpt>
      <trkpt lat="44.94594" lon="3.97382">
        <ele>986.5</ele>
        <time>2023-02-07T16:08:16Z</time>
      </trkpt>
      <trkpt lat="44.9461" lon="3.97553">
        <ele>989.9</ele>
        <time>2023-02-07T16:08:16Z</time>
      </trkpt>
      <trkpt lat="44.94605" lon="3.97575">
        <ele>989.8</ele>
        <time>2023-02-07T16:08:16Z</time>
      </trkpt>
      <trkpt lat="44.94604" lon="3.97586">
        <ele>989.7</ele>
        <time>2023-02-07T16:08:16Z</time>
      </trkpt>
      <trkpt lat="44.94605" lon="3.97599">
        <ele>989.8</ele>
        <time>2023-02-07T16:08:16Z</time>
      </trkpt>
      <trkpt lat="44.94618" lon="3.97638">
        <ele>991</ele>
        <time>2023-02-07T16:08:16Z</time>
      </trkpt>
      <trkpt lat="44.94635" lon="3.97763">
        <ele>992</ele>
        <time>2023-02-07T16:08:16Z</time>
      </trkpt>
      <trkpt lat="44.94614" lon="3.98082">
        <ele>997</ele>
        <time>2023-02-07T16:08:16Z</time>
      </trkpt>
      <trkpt lat="44.94614" lon="3.98082">
        <ele>997</ele>
        <time>2023-02-07T16:08:16Z</time>
      </trkpt>
      <trkpt lat="44.94622" lon="3.98197">
        <ele>994.5</ele>
        <time>2023-02-07T16:08:16Z</time>
      </trkpt>
      <trkpt lat="44.94634" lon="3.98236">
        <ele>989</ele>
        <time>2023-02-07T16:08:16Z</time>
      </trkpt>
      <trkpt lat="44.94652" lon="3.9827">
        <ele>980.7</ele>
        <time>2023-02-07T16:08:16Z</time>
      </trkpt>
      <trkpt lat="44.94662" lon="3.98279">
        <ele>976.8</ele>
        <time>2023-02-07T16:08:16Z</time>
      </trkpt>
      <trkpt lat="44.94667" lon="3.98314">
        <ele>971.7</ele>
        <time>2023-02-07T16:08:16Z</time>
      </trkpt>
      <trkpt lat="44.94668" lon="3.9843">
        <ele>953.2</ele>
        <time>2023-02-07T16:08:16Z</time>
      </trkpt>
      <trkpt lat="44.9468" lon="3.98477">
        <ele>947.1</ele>
        <time>2023-02-07T16:08:16Z</time>
      </trkpt>
      <trkpt lat="44.94666" lon="3.98596">
        <ele>935.5</ele>
        <time>2023-02-07T16:08:16Z</time>
      </trkpt>
      <trkpt lat="44.9469" lon="3.98758">
        <ele>931.8</ele>
        <time>2023-02-07T16:08:16Z</time>
      </trkpt>
      <trkpt lat="44.94673" lon="3.98846">
        <ele>930.4</ele>
        <time>2023-02-07T16:08:16Z</time>
      </trkpt>
      <trkpt lat="44.94673" lon="3.98846">
        <ele>930.4</ele>
        <time>2023-02-07T16:08:16Z</time>
      </trkpt>
      <trkpt lat="44.94663" lon="3.98887">
        <ele>929.7</ele>
        <time>2023-02-07T16:08:16Z</time>
      </trkpt>
      <trkpt lat="44.94676" lon="3.98902">
        <ele>930.8</ele>
        <time>2023-02-07T16:08:16Z</time>
      </trkpt>
      <trkpt lat="44.94659" lon="3.98932">
        <ele>931.1</ele>
        <time>2023-02-07T16:08:16Z</time>
      </trkpt>
      <trkpt lat="44.94495" lon="3.9905">
        <ele>935.7</ele>
        <time>2023-02-07T16:08:16Z</time>
      </trkpt>
      <trkpt lat="44.944" lon="3.99108">
        <ele>936.9</ele>
        <time>2023-02-07T16:08:16Z</time>
      </trkpt>
      <trkpt lat="44.94354" lon="3.99155">
        <ele>934.7</ele>
        <time>2023-02-07T16:08:16Z</time>
      </trkpt>
      <trkpt lat="44.94354" lon="3.99155">
        <ele>934.7</ele>
        <time>2023-02-07T16:08:16Z</time>
      </trkpt>
      <trkpt lat="44.94311" lon="3.99213">
        <ele>931.9</ele>
        <time>2023-02-07T16:08:16Z</time>
      </trkpt>
      <trkpt lat="44.94304" lon="3.99219">
        <ele>931.5</ele>
        <time>2023-02-07T16:08:16Z</time>
      </trkpt>
      <trkpt lat="44.94296" lon="3.99222">
        <ele>930.6</ele>
        <time>2023-02-07T16:08:16Z</time>
      </trkpt>
      <trkpt lat="44.94154" lon="3.99314">
        <ele>929.7</ele>
        <time>2023-02-07T16:08:16Z</time>
      </trkpt>
      <trkpt lat="44.9413" lon="3.99323">
        <ele>930</ele>
        <time>2023-02-07T16:08:16Z</time>
      </trkpt>
      <trkpt lat="44.94103" lon="3.99326">
        <ele>930.3</ele>
        <time>2023-02-07T16:08:16Z</time>
      </trkpt>
      <trkpt lat="44.94059" lon="3.99357">
        <ele>931.1</ele>
        <time>2023-02-07T16:08:16Z</time>
      </trkpt>
      <trkpt lat="44.94035" lon="3.99381">
        <ele>929.6</ele>
        <time>2023-02-07T16:08:16Z</time>
      </trkpt>
      <trkpt lat="44.94035" lon="3.99381">
        <ele>929.6</ele>
        <time>2023-02-07T16:08:16Z</time>
      </trkpt>
      <trkpt lat="44.94014" lon="3.994">
        <ele>929.4</ele>
        <time>2023-02-07T16:08:16Z</time>
      </trkpt>
      <trkpt lat="44.94005" lon="3.99405">
        <ele>929.2</ele>
        <time>2023-02-07T16:08:16Z</time>
      </trkpt>
      <trkpt lat="44.93975" lon="3.99406">
        <ele>928.1</ele>
        <time>2023-02-07T16:08:16Z</time>
      </trkpt>
      <trkpt lat="44.93942" lon="3.99421">
        <ele>929.1</ele>
        <time>2023-02-07T16:08:16Z</time>
      </trkpt>
      <trkpt lat="44.93908" lon="3.99471">
        <ele>931.2</ele>
        <time>2023-02-07T16:08:16Z</time>
      </trkpt>
      <trkpt lat="44.93896" lon="3.99497">
        <ele>933.4</ele>
        <time>2023-02-07T16:08:16Z</time>
      </trkpt>
      <trkpt lat="44.93885" lon="3.99542">
        <ele>938.1</ele>
        <time>2023-02-07T16:08:16Z</time>
      </trkpt>
      <trkpt lat="44.93889" lon="3.99561">
        <ele>940.6</ele>
        <time>2023-02-07T16:08:16Z</time>
      </trkpt>
      <trkpt lat="44.93907" lon="3.99593">
        <ele>944.4</ele>
        <time>2023-02-07T16:08:16Z</time>
      </trkpt>
      <trkpt lat="44.93916" lon="3.99602">
        <ele>945.1</ele>
        <time>2023-02-07T16:08:16Z</time>
      </trkpt>
    </trkseg>
  </trk>
</gpx>